SANDSTONE Weather Reports


Display with metric or nautical units.
time (UTC)temp
F
wind
direction
speed
MPH
gust
MPH
rain 1hr
in
rain 24hr
in
rain mn
in
humidity
%
barometer
mb
20260906194619 72 43 2.0 11.0 0.00 0.00 0.00 72 1019.9
20260906193107 73 48 3.0 8.0 0.00 0.00 0.00 72 1020.0
20260906191607 71 69 5.0 10.0 0.00 0.00 0.00 75 1020.1
20260906190059 72 38 3.0 10.0 0.00 0.00 0.00 77 1020.4
20260906184612 71 81 1.0 11.0 0.00 0.00 0.00 76 1020.8
20260906183106 71 72 4.0 11.0 0.00 0.00 0.00 76 1020.9
20260906181603 71 24 4.0 13.0 0.00 0.00 0.00 76 1021.0
20260906180104 73 103 2.0 8.0 0.00 0.00 0.00 70 1020.9
20260906174600 73 98 3.0 8.0 0.00 0.00 0.00 67 1021.0
20260906173104 74 132 1.0 7.0 0.00 0.00 0.00 66 1020.9
20260906171607 74 61 2.0 7.0 0.00 0.00 0.00 66 1021.0
20260906170103 73 55 2.0 7.0 0.00 0.00 0.00 67 1021.0
20260906164604 73 58 1.0 6.0 0.00 0.00 0.00 65 1021.0
20260906163103 72 57 2.0 4.0 0.00 0.00 0.00 68 1021.0
20260906161607 70 130 1.0 6.0 0.00 0.00 0.00 68 1021.1
20260906160110 70 0 2.0 6.0 0.00 0.00 0.00 70 1020.9
20260906154605 69 77 2.0 6.0 0.00 0.00 0.00 71 1021.1
20260906153101 68 49 1.0 4.0 0.00 0.00 0.00 77 1021.1
20260906151605 69 75 1.0 4.0 0.00 0.00 0.00 78 1021.2
20260906150105 68 101 1.0 4.0 0.00 0.00 0.00 82 1021.2
20260906144621 68 0 1.0 3.0 0.00 0.00 0.00 84 1021.3
20260906143102 66 94 1.0 4.0 0.00 0.00 0.00 87 1021.2
20260906141628 65 0 0.0 0.0 0.00 0.00 0.00 91 1021.4
20260906140110 63 0 0.0 0.0 0.00 0.00 0.00 95 1021.4
20260906134601 61 0 0.0 0.0 0.00 0.00 0.00 96 1021.4
20260906133104 59 0 0.0 0.0 0.00 0.00 0.00 97 1021.4
20260906131607 58 0 0.0 0.0 0.00 0.00 0.00 97 1021.4
20260906130104 57 0 0.0 0.0 0.00 0.00 0.00 97 1021.1
20260906124603 56 0 0.0 0.0 0.00 0.00 0.00 96 1020.9
20260906123104 55 0 0.0 0.0 0.00 0.00 0.00 96 1021.0
20260906121559 54 0 0.0 0.0 0.00 0.00 0.00 96 1020.8
20260906120106 54 0 0.0 0.0 0.00 0.00 0.00 97 1020.9
20260906114604 53 0 0.0 0.0 0.00 0.00 0.00 96 1020.7
20260906113105 53 0 0.0 0.0 0.00 0.00 0.00 96 1020.7
20260906111602 53 0 0.0 0.0 0.00 0.00 0.00 96 1020.7
20260906110057 53 0 0.0 0.0 0.00 0.00 0.00 96 1020.6
20260906104616 53 0 0.0 0.0 0.00 0.00 0.00 96 1020.6
20260906103106 53 0 0.0 0.0 0.00 0.00 0.00 96 1020.4
20260906101603 53 0 0.0 0.0 0.00 0.00 0.00 96 1020.4
20260906100058 53 0 0.0 0.0 0.00 0.00 0.00 96 1020.5
20260906094643 54 0 0.0 0.0 0.00 0.00 0.00 96 1020.5
20260906093109 54 0 0.0 0.0 0.00 0.00 0.00 96 1020.5
20260906091557 53 0 0.0 0.0 0.00 0.00 0.00 96 1020.6
20260906084605 54 0 0.0 0.0 0.00 0.00 0.00 96 1020.6
20260906083104 54 0 0.0 0.0 0.00 0.00 0.00 96 1020.6
20260906081602 54 0 0.0 0.0 0.00 0.00 0.00 96 1020.3
20260906080058 54 0 0.0 0.0 0.00 0.00 0.00 96 1020.2
20260906074609 55 0 0.0 0.0 0.00 0.00 0.00 96 1020.2
20260906073104 55 0 0.0 0.0 0.00 0.00 0.00 96 1020.1
20260906071604 55 0 0.0 0.0 0.00 0.00 0.00 96 1020.2
20260906070100 56 0 0.0 1.0 0.00 0.00 0.00 96 1020.3
20260906064602 55 0 0.0 1.0 0.00 0.00 0.00 96 1020.3
20260906063107 56 0 0.0 0.0 0.00 0.00 0.00 96 1020.2
20260906061605 56 0 0.0 0.0 0.00 0.00 0.00 96 1020.2
20260906060109 56 0 0.0 0.0 0.00 0.00 0.00 96 1020.0
20260906054601 56 0 0.0 1.0 0.00 0.00 0.00 96 1019.8
20260906053107 56 0 0.0 0.0 0.00 0.00 0.00 95 1019.7
20260906051604 56 0 0.0 0.0 0.00 0.00 0.00 95 1019.8
20260906050128 57 0 0.0 0.0 0.00 0.00 0.00 95 1019.7
20260906044559 57 0 0.0 1.0 0.00 0.00 0.00 95 1019.7
20260906043101 57 0 0.0 0.0 0.00 0.00 0.00 94 1019.6
20260906041601 58 0 0.0 2.0 0.00 0.00 0.00 94 1019.7
20260906040137 58 0 0.0 0.0 0.00 0.00 0.00 94 1019.6
20260906034606 59 0 0.0 0.0 0.00 0.00 0.00 94 1019.6
20260906033104 59 0 0.0 1.0 0.00 0.00 0.00 94 1019.5
20260906031603 60 0 0.0 1.0 0.00 0.00 0.00 93 1019.5
20260906030107 60 0 0.0 1.0 0.00 0.00 0.00 93 1019.4
20260906024604 61 0 0.0 0.0 0.00 0.00 0.00 93 1019.3
20260906023058 61 0 0.0 1.0 0.00 0.00 0.00 92 1019.2
20260906021605 62 0 0.0 1.0 0.00 0.00 0.00 91 1019.3
20260906020107 63 50 0.0 3.0 0.00 0.00 0.00 89 1019.1
20260906014602 63 55 0.0 4.0 0.00 0.00 0.00 90 1019.1
20260906013058 64 0 2.0 5.0 0.00 0.00 0.00 91 1019.0
20260906011603 64 65 1.0 5.0 0.00 0.00 0.00 92 1019.0
20260906010109 64 57 1.0 5.0 0.00 0.00 0.00 91 1018.9
20260906004605 65 61 1.0 4.0 0.00 0.00 0.00 91 1018.9
20260906003108 65 47 1.0 5.0 0.00 0.00 0.00 90 1018.8
20260906001617 65 34 2.0 5.0 0.00 0.00 0.00 89 1018.8
20260906000108 66 65 1.0 4.0 0.00 0.00 0.00 88 1018.9
20260905234601 66 45 2.0 8.0 0.00 0.00 0.00 86 1018.8
20260905233112 67 63 3.0 10.0 0.00 0.00 0.00 84 1018.8
20260905231600 68 54 2.0 10.0 0.00 0.00 0.00 83 1018.8
20260905230120 69 34 3.0 11.0 0.00 0.00 0.00 81 1018.7
20260905224609 70 72 4.0 9.0 0.00 0.00 0.00 77 1018.9
20260905223104 70 48 2.0 11.0 0.00 0.00 0.00 77 1019.0
20260905221603 71 52 3.0 11.0 0.00 0.00 0.00 73 1018.8
20260905220105 71 22 2.0 9.0 0.00 0.00 0.00 73 1018.8
20260905214600 71 45 1.0 5.0 0.00 0.00 0.00 71 1018.7
20260905213109 72 17 3.0 11.0 0.00 0.00 0.00 69 1018.9
20260905211603 72 76 3.0 11.0 0.00 0.00 0.00 68 1018.7
20260905210113 72 45 3.0 10.0 0.00 0.00 0.00 67 1018.9
20260905204604 73 36 0.0 8.0 0.00 0.00 0.00 68 1019.2
20260905203107 72 51 4.0 10.0 0.00 0.00 0.00 66 1019.2
20260905201609 72 24 4.0 10.0 0.00 0.00 0.00 67 1019.2
20260905200147 73 65 2.0 9.0 0.00 0.00 0.00 68 1019.2